TimeMDT,TemperatureF,Dew PointF,Humidity,Sea Level PressureIn,VisibilityMPH,Wind Direction,Wind SpeedMPH,Gust SpeedMPH,PrecipitationIn,Events,Conditions,WindDirDegrees,DateUTC
12:15 AM,44.6,33.8,66,30.17,10.0,Calm,Calm,-,N/A,,Clear,0,2013-03-15 06:15:00
12:35 AM,44.6,33.8,66,30.17,10.0,Calm,Calm,-,N/A,,Clear,0,2013-03-15 06:35:00
12:55 AM,44.6,33.8,66,30.16,10.0,SSE,3.5,-,N/A,,Clear,150,2013-03-15 06:55:00
1:15 AM,46.4,35.6,66,30.17,10.0,Calm,Calm,-,N/A,,Clear,0,2013-03-15 07:15:00
1:35 AM,44.6,35.6,71,30.17,10.0,Calm,Calm,-,N/A,,Clear,0,2013-03-15 07:35:00
1:55 AM,46.4,32.0,57,30.16,10.0,SSW,5.8,-,N/A,,Clear,200,2013-03-15 07:55:00
2:15 AM,42.8,33.8,70,30.16,10.0,Calm,Calm,-,N/A,,Clear,0,2013-03-15 08:15:00
2:35 AM,42.8,33.8,70,30.16,10.0,SW,3.5,-,N/A,,Clear,230,2013-03-15 08:35:00
2:55 AM,41.0,33.8,76,30.15,10.0,Calm,Calm,-,N/A,,Clear,0,2013-03-15 08:55:00
3:15 AM,44.6,35.6,71,30.15,10.0,ESE,4.6,-,N/A,,Clear,120,2013-03-15 09:15:00
3:35 AM,42.8,33.8,70,30.14,10.0,SE,4.6,-,N/A,,Clear,130,2013-03-15 09:35:00
3:55 AM,42.8,32.0,66,30.14,10.0,SE,4.6,-,N/A,,Clear,140,2013-03-15 09:55:00
4:15 AM,42.8,32.0,66,30.13,10.0,SSE,6.9,-,N/A,,Clear,160,2013-03-15 10:15:00
4:35 AM,42.8,32.0,66,30.13,10.0,South,8.1,-,N/A,,Clear,180,2013-03-15 10:35:00
4:55 AM,42.8,32.0,66,30.12,10.0,Calm,Calm,-,N/A,,Clear,0,2013-03-15 10:55:00
5:15 AM,39.2,33.8,81,30.13,10.0,NNW,5.8,-,N/A,,Clear,330,2013-03-15 11:15:00
5:35 AM,42.8,32.0,66,30.13,10.0,NNW,4.6,-,N/A,,Clear,330,2013-03-15 11:35:00
5:55 AM,41.0,32.0,70,30.13,10.0,NNW,4.6,-,N/A,,Clear,330,2013-03-15 11:55:00
6:15 AM,42.8,32.0,66,30.14,10.0,NW,3.5,-,N/A,,Clear,310,2013-03-15 12:15:00
6:35 AM,42.8,32.0,66,30.13,10.0,NW,3.5,-,N/A,,Clear,320,2013-03-15 12:35:00
6:50 AM,42.8,30.2,61,30.14,10.0,Calm,Calm,-,N/A,,Mostly Cloudy,0,2013-03-15 12:50:00
7:53 AM,39.2,33.8,81,30.14,15.0,East,4.6,-,N/A,,Scattered Clouds,90,2013-03-15 13:53:00
8:49 AM,42.8,37.4,81,30.15,15.0,South,3.5,-,N/A,,Scattered Clouds,170,2013-03-15 14:49:00
9:52 AM,51.8,33.8,50,30.16,15.0,ENE,3.5,-,N/A,,Scattered Clouds,70,2013-03-15 15:52:00
10:53 AM,46.4,33.8,62,30.16,15.0,SW,3.5,-,N/A,,Scattered Clouds,220,2013-03-15 16:53:00
11:57 AM,53.6,33.8,47,30.14,15.0,WSW,4.6,-,N/A,,Mostly Cloudy,250,2013-03-15 17:57:00
12:48 PM,57.2,32.0,38,30.12,15.0,WSW,5.8,-,N/A,,Mostly Cloudy,240,2013-03-15 18:48:00
1:47 PM,60.8,30.2,31,30.10,15.0,Variable,4.6,-,N/A,,Mostly Cloudy,0,2013-03-15 19:47:00
2:57 PM,66.2,32.0,28,30.05,15.0,Variable,4.6,-,N/A,,Mostly Cloudy,0,2013-03-15 20:57:00
3:55 PM,68.0,28.4,23,30.04,15.0,West,6.9,-,N/A,,Mostly Cloudy,270,2013-03-15 21:55:00
4:53 PM,57.2,28.4,33,30.03,15.0,West,6.9,-,N/A,,Mostly Cloudy,270,2013-03-15 22:53:00
5:50 PM,57.2,30.2,36,30.02,15.0,WNW,10.4,-,N/A,,Mostly Cloudy,300,2013-03-15 23:50:00
7:03 PM,50.0,30.2,47,30.02,15.0,WNW,9.2,-,N/A,,Mostly Cloudy,300,2013-03-16 01:03:00
7:50 PM,50.0,28.4,43,30.02,15.0,WNW,4.6,-,N/A,,Overcast,300,2013-03-16 01:50:00
8:47 PM,51.8,28.4,41,30.00,15.0,WNW,4.6,-,N/A,,Overcast,300,2013-03-16 02:47:00
8:55 PM,51.8,28.4,41,30.00,10.0,NNW,5.8,-,N/A,,Clear,330,2013-03-16 02:55:00
9:15 PM,51.8,28.4,41,30.01,10.0,North,6.9,-,N/A,,Clear,350,2013-03-16 03:15:00
9:35 PM,50.0,32.0,50,30.02,10.0,North,4.6,-,N/A,,Clear,10,2013-03-16 03:35:00
9:55 PM,51.8,30.2,44,30.02,10.0,North,5.8,-,N/A,,Clear,10,2013-03-16 03:55:00
10:15 PM,51.8,28.4,41,30.02,10.0,WNW,10.4,-,N/A,,Scattered Clouds,300,2013-03-16 04:15:00
10:35 PM,50.0,28.4,43,30.02,10.0,WNW,8.1,-,N/A,,Partly Cloudy,290,2013-03-16 04:35:00
10:55 PM,48.2,30.2,50,30.03,10.0,NNE,5.8,-,N/A,,Clear,30,2013-03-16 04:55:00
11:55 PM,46.4,32.0,57,30.02,10.0,Calm,Calm,-,N/A,,Clear,0,2013-03-16 05:55:00